ECMWFFLT2_925_thetae_105.txt.gz
Theta_e
339 340 341 341 341 342 342 341 341 340 339 339 338 337 336 336 336 335 336 337 338 338 338 338 336 335 336 331 328 327 323 324 324 324 329 326 318 312 310 316 323 325 327 329 330 330 330 328 327 326 326 326 326 328 330 330 332 334 334 332 331 330
339 340 341 341 341 341 341 341 340 339 339 339 338 337 336 335 334 335 337 337 337 338 339 338 336 337 337 330 327 326 324 326 327 326 330 334 331 321 311 310 316 322 325 327 327 329 332 330 327 327 326 325 325 330 336 333 330 331 333 332 330 331
339 339 339 340 341 341 341 340 339 339 339 338 337 336 336 335 335 337 338 338 338 339 341 340 338 340 339 333 331 330 328 330 331 329 330 334 336 332 324 315 312 316 320 323 327 332 336 334 333 334 334 333 330 332 337 336 333 333 334 333 332 333
339 338 338 338 339 341 339 338 339 339 339 338 337 337 338 338 338 338 338 339 340 339 340 340 340 341 339 335 336 337 335 335 335 335 334 334 335 336 336 329 318 314 317 323 331 335 338 338 338 339 338 337 335 334 336 337 337 336 335 335 333 332
339 338 337 335 336 338 337 337 338 338 338 337 338 340 340 339 340 340 338 338 339 338 337 336 336 337 338 337 338 339 338 337 336 336 336 335 334 335 337 337 331 324 323 327 332 333 335 337 338 339 338 336 335 335 336 336 337 335 334 335 334 333
338 336 332 331 334 336 337 337 337 337 337 338 339 339 339 339 340 340 337 336 338 338 337 337 337 337 338 339 339 338 338 338 337 337 336 335 335 335 336 337 336 333 330 329 330 330 331 333 336 337 336 334 333 334 335 335 336 335 334 333 333 334
338 334 331 333 335 336 338 338 338 337 336 337 338 338 338 339 339 338 337 337 338 338 339 339 339 339 338 339 339 338 338 339 338 338 337 336 335 335 336 336 337 336 333 331 330 330 330 332 334 334 333 332 332 332 333 334 333 333 333 333 334 334
339 336 335 336 336 336 338 338 337 337 337 337 338 338 339 339 337 337 338 339 339 339 339 339 339 339 338 338 339 338 338 338 339 338 337 337 337 337 336 337 337 337 336 335 334 333 333 333 333 333 333 333 333 333 334 334 333 333 333 334 334 334
339 338 337 336 335 336 337 336 336 336 337 337 338 339 338 338 337 337 339 339 340 340 339 338 339 339 339 338 339 339 338 338 339 337 336 337 338 338 337 337 338 337 337 337 336 335 334 334 334 333 333 334 334 334 334 334 333 333 334 334 335 334
337 337 335 334 335 336 336 336 337 337 337 336 337 339 339 338 339 339 339 340 340 340 340 340 340 340 339 338 338 338 338 338 338 338 338 338 339 339 338 338 339 338 338 338 337 336 336 335 335 335 334 334 334 334 334 334 333 333 334 334 334 334
337 336 334 336 337 337 337 336 336 337 337 339 339 339 339 339 340 340 340 340 339 339 341 341 340 341 340 338 338 338 338 338 338 338 338 338 339 339 339 338 339 338 338 338 338 338 338 337 337 336 336 335 336 336 335 335 334 334 334 334 334 335
337 335 334 338 338 337 337 336 336 336 337 339 339 339 339 339 339 340 340 341 341 340 341 341 340 340 340 339 338 338 338 338 338 338 338 338 338 338 338 338 338 338 338 339 338 338 338 338 338 337 337 337 337 337 337 337 337 337 336 336 337 336
336 334 335 338 337 336 337 336 337 338 338 339 339 338 339 339 339 341 341 340 341 341 340 340 340 340 339 339 338 338 337 337 338 338 338 338 337 337 337 338 338 338 339 339 338 338 338 338 338 338 337 337 338 337 337 338 338 338 338 338 338 338
336 336 336 338 337 337 338 338 338 339 339 339 338 338 338 339 339 340 341 341 341 340 339 338 339 339 339 339 338 338 337 337 337 338 337 337 337 338 338 338 338 338 337 337 337 338 338 338 338 338 338 337 337 337 337 337 337 337 337 337 338 339
337 337 338 338 338 339 339 338 338 339 339 338 338 338 338 338 339 339 339 339 341 341 340 339 339 339 339 339 338 337 337 336 337 338 336 336 337 337 337 337 337 337 336 336 336 337 337 337 336 336 336 336 336 336 336 336 336 336 335 336 337 338
337 338 338 338 338 339 339 338 338 339 339 338 337 338 338 338 338 339 338 337 339 340 340 340 340 339 339 339 338 337 338 337 337 338 337 337 337 336 336 335 336 336 335 335 335 335 335 335 334 335 334 334 334 335 335 335 335 335 335 336 336 336
337 338 339 338 338 338 338 338 339 338 338 337 337 338 338 338 338 338 337 337 338 339 339 340 339 338 338 338 338 338 338 338 337 337 337 336 336 335 335 335 335 335 334 334 335 335 333 333 333 333 333 333 333 333 334 334 334 334 334 335 336 336
338 339 338 338 338 337 337 338 338 338 337 337 337 337 337 337 337 337 336 337 337 338 338 338 338 338 338 337 337 336 336 336 336 335 335 335 335 334 334 334 334 334 333 334 333 332 330 331 332 332 333 333 333 333 333 334 334 334 334 335 335 336
339 338 337 337 337 337 337 337 338 337 337 337 337 337 336 336 336 335 336 335 336 336 336 337 337 337 337 336 335 335 335 334 334 334 334 333 333 332 332 332 331 331 331 332 330 328 328 329 330 330 331 331 331 332 332 334 334 334 335 335 335 336
338 338 337 337 337 337 337 337 337 337 337 336 336 336 335 335 335 335 335 334 334 335 335 335 335 335 335 334 333 333 333 333 332 332 331 331 330 329 329 329 329 328 328 329 327 327 327 327 328 327 327 328 328 329 332 334 334 333 333 333 333 334
336 337 337 337 338 338 337 336 335 336 336 335 335 335 335 334 334 335 334 333 333 332 332 333 332 332 333 332 331 331 330 330 329 329 329 328 327 327 326 326 326 326 325 325 325 325 325 325 326 326 327 328 325 326 332 334 332 328 328 330 329 329
336 337 337 337 338 337 337 336 336 336 336 335 335 335 334 334 334 333 332 331 330 329 329 330 329 329 329 329 329 329 328 326 325 325 325 324 325 325 324 324 324 324 323 323 324 324 323 324 324 325 327 328 327 326 328 330 328 325 325 327 326 326
336 337 336 336 337 336 336 336 336 336 335 335 335 334 334 333 332 331 329 328 327 326 326 326 326 326 326 326 326 326 325 323 323 323 323 322 323 323 323 323 323 322 322 322 323 322 322 321 321 323 326 328 330 330 329 326 323 323 324 324 324 324
336 336 335 336 336 336 335 336 336 335 334 334 334 333 333 331 329 328 327 326 325 325 324 323 323 324 324 324 324 324 323 321 322 322 322 321 322 321 321 321 321 321 321 321 321 321 320 319 317 319 323 325 327 328 327 324 321 322 322 322 322 321
336 335 335 336 336 336 336 335 335 334 334 333 333 332 330 328 327 326 325 325 324 323 323 322 321 322 321 321 321 322 321 319 319 320 320 319 320 319 319 319 318 319 318 318 318 317 316 316 315 316 318 320 323 324 322 319 320 322 320 320 320 317
335 335 335 335 336 336 335 334 334 334 334 333 332 330 329 327 326 325 324 323 323 322 321 320 319 319 319 318 319 319 319 318 317 317 317 318 318 317 317 317 316 316 316 316 315 314 314 314 314 314 315 316 318 319 317 316 317 318 316 317 316 314
335 335 335 335 335 334 334 334 334 335 334 332 331 329 328 327 325 324 323 323 321 319 319 318 317 317 316 316 316 317 317 316 316 316 317 317 316 316 316 315 314 315 315 314 313 313 313 313 312 313 313 314 314 314 314 313 314 314 314 314 313 312
334 334 334 334 334 333 334 334 334 333 332 331 330 328 327 326 325 324 322 321 319 317 317 316 315 315 315 314 314 315 315 315 314 315 316 315 314 314 315 314 313 314 314 312 312 312 311 312 312 312 312 312 313 313 312 312 311 312 313 313 312 311
333 333 333 333 333 333 333 333 333 332 330 329 329 327 326 325 324 322 320 318 318 316 315 315 314 314 314 313 312 312 313 313 313 314 315 314 312 312 313 313 313 313 313 312 311 311 310 311 311 311 311 311 312 312 311 311 311 311 312 312 311 310
332 333 333 333 333 332 332 332 331 330 328 328 327 326 324 323 322 321 319 317 317 315 314 313 313 312 312 312 311 310 311 311 312 313 313 312 310 310 311 312 312 312 312 311 311 310 310 310 310 310 310 310 310 310 310 310 310 310 311 310 310 309
331 331 332 332 332 331 330 330 329 328 328 327 326 324 323 322 321 319 318 317 316 314 313 311 311 310 310 310 309 309 310 310 311 311 311 310 309 309 311 312 310 310 310 311 310 310 310 309 309 309 309 308 308 308 309 308 308 308 309 308 308 308
328 328 329 329 330 329 328 328 328 327 327 326 325 324 323 322 319 318 317 316 315 314 312 310 309 309 308 308 308 308 308 309 310 310 310 309 308 308 310 310 309 308 309 309 309 309 309 309 308 309 308 307 306 307 308 307 307 307 308 307 307 307
326 326 326 326 326 326 326 326 326 326 326 325 324 323 323 321 318 317 316 316 314 312 311 310 309 308 307 307 308 308 308 308 309 309 308 308 307 307 309 309 308 308 308 307 308 308 308 308 308 308 307 305 305 306 307 306 306 307 306 306 305 305
325 324 324 324 324 324 324 324 324 324 324 323 321 320 319 318 317 316 315 314 313 311 310 310 309 308 307 307 307 307 308 308 308 308 308 308 307 307 308 308 308 308 307 307 307 307 307 308 307 306 305 305 305 306 305 305 305 305 304 304 303 304
323 323 322 322 322 322 322 322 321 321 320 320 319 318 317 316 316 315 314 312 311 309 309 308 308 308 307 306 305 306 307 307 307 307 307 307 307 307 307 307 307 307 307 307 306 307 307 307 306 305 304 304 304 304 304 304 304 303 302 301 301 302
321 321 321 320 321 320 320 320 319 318 318 318 317 316 316 315 315 314 313 311 309 308 307 307 307 307 306 306 305 305 305 306 307 306 307 307 307 307 306 306 307 307 307 306 306 306 306 306 306 305 304 304 303 303 303 302 302 300 299 299 299 300
320 320 319 319 319 319 318 318 317 317 317 316 316 315 314 314 314 313 311 309 308 308 307 306 306 306 306 306 306 305 305 305 306 306 306 306 306 306 306 306 306 306 306 306 305 306 305 305 305 304 303 303 302 302 302 301 299 298 297 297 298 298

ECMWFFLT2_925_thetae_111.txt.gz
Theta_e
340 340 340 341 341 341 340 340 340 339 338 337 337 336 334 332 333 335 336 337 336 336 335 335 333 328 326 325 325 325 326 328 330 329 328 323 318 316 319 324 327 327 326 326 327 326 323 323 324 327 327 329 329 325 326 332 334 335 336 336 334 333
340 341 341 341 341 340 340 340 339 339 338 337 336 335 334 334 335 336 337 337 338 338 337 338 338 333 329 327 327 328 328 329 329 332 333 333 328 322 317 317 321 325 325 325 327 328 325 323 326 327 329 333 334 331 331 334 336 336 336 336 336 335
340 341 341 341 341 340 340 339 339 338 337 337 336 335 335 335 336 337 337 338 338 339 338 339 340 338 336 334 334 333 332 332 332 333 333 334 334 333 328 321 317 318 320 322 326 331 330 329 332 333 334 335 335 335 335 335 335 335 335 334 334 335
340 341 341 340 340 341 340 339 338 338 337 336 335 334 335 336 337 338 338 338 338 338 338 337 339 340 339 337 337 337 336 335 335 334 334 334 334 335 335 333 326 321 319 320 322 327 330 331 332 332 332 332 333 334 335 334 333 334 334 333 333 333
339 340 340 340 340 340 339 338 338 337 337 335 335 334 335 336 338 337 336 337 337 337 337 336 337 338 338 337 338 338 337 337 337 335 335 334 334 334 334 335 334 332 329 327 327 329 331 332 332 332 332 332 332 333 334 334 333 333 333 333 333 333
339 340 340 339 339 339 338 338 338 337 336 334 334 335 336 338 338 336 337 338 337 337 337 336 336 337 337 338 338 338 337 337 337 337 336 335 335 334 335 335 335 335 334 334 334 335 336 336 335 335 334 333 332 333 333 333 333 334 334 333 333 333
340 340 339 339 339 338 337 337 337 336 334 334 335 337 338 338 338 338 337 338 338 338 338 338 338 338 338 338 338 338 338 337 338 337 336 336 336 336 336 336 337 336 336 337 337 337 338 337 337 336 335 334 334 334 334 334 334 334 334 334 333 333
339 339 339 339 339 337 335 336 336 334 335 336 337 338 338 338 338 338 338 339 339 339 339 338 338 338 338 337 337 338 338 337 337 337 336 336 337 338 338 337 338 337 337 337 337 337 337 337 337 337 336 336 336 336 336 336 336 335 336 336 335 334
337 337 338 339 338 336 334 335 335 334 336 339 338 338 338 339 339 339 339 340 339 339 338 338 338 338 338 337 337 338 337 337 337 337 337 337 337 338 338 338 337 337 337 337 337 337 337 337 337 337 337 337 337 337 336 337 336 337 337 337 337 336
337 337 337 339 338 334 334 335 334 335 336 338 338 338 338 339 339 339 339 339 339 339 338 338 339 339 338 338 337 337 337 337 337 337 337 337 337 338 337 337 337 337 337 337 337 337 337 337 337 337 336 336 336 336 336 336 336 336 336 336 336 336
338 337 336 338 337 334 335 336 335 336 336 337 338 338 338 339 339 339 339 339 339 339 339 339 339 339 338 338 337 337 338 337 337 337 337 337 337 337 337 337 337 337 336 336 336 336 337 337 336 336 336 335 335 335 335 335 335 335 335 335 335 335
338 337 335 335 335 334 336 337 337 336 337 337 338 338 338 339 339 338 339 338 339 339 339 339 339 339 338 337 336 336 337 337 337 337 337 337 337 337 337 337 336 336 335 335 335 335 335 335 335 335 334 334 333 333 333 333 333 333 333 334 334 335
336 337 334 333 335 336 337 337 337 337 337 337 338 338 339 339 339 338 338 339 339 340 339 339 339 338 337 336 336 336 337 336 336 336 336 336 336 336 336 336 335 334 334 334 333 333 333 334 334 333 333 332 332 332 332 332 332 332 333 333 334 334
335 336 334 334 336 336 337 337 337 337 337 337 337 339 339 339 338 338 338 339 339 340 340 339 338 338 337 336 336 337 337 336 336 335 336 336 335 335 334 334 334 333 333 333 333 333 333 332 332 332 332 331 331 331 331 331 331 332 332 333 333 334
336 335 334 336 336 336 337 336 337 338 338 338 338 339 338 338 337 338 338 339 339 340 339 339 338 337 337 336 337 337 336 336 336 335 335 335 335 334 334 333 333 333 333 332 332 332 331 332 331 331 330 330 329 329 330 330 330 330 330 330 331 330
336 336 335 336 336 336 336 337 338 338 338 339 338 338 338 338 338 338 338 339 339 339 339 338 337 337 337 336 336 336 336 336 336 336 335 334 334 333 333 332 332 332 332 331 331 331 331 330 330 329 328 327 327 328 328 328 327 326 325 326 326 325
337 336 336 336 336 336 336 337 337 338 338 338 338 338 338 338 337 337 337 338 339 338 338 338 338 337 336 336 335 335 335 335 335 335 334 333 333 332 331 331 331 330 330 329 329 329 329 328 328 327 326 326 326 326 326 325 324 323 322 322 321 321
337 337 336 336 336 336 336 336 336 337 337 337 338 338 338 337 336 336 337 337 338 337 337 337 337 337 336 335 335 334 334 333 333 333 332 332 331 330 330 329 329 328 327 327 326 326 326 326 325 324 325 326 324 323 323 323 322 321 319 317 315 315
337 337 337 336 336 337 336 337 337 337 337 337 337 337 337 336 336 337 337 337 336 336 336 335 335 335 335 334 334 333 332 331 331 330 330 330 328 327 327 326 326 325 324 323 323 322 323 322 322 321 323 326 324 321 321 321 320 319 316 313 311 310
336 336 337 337 337 337 337 337 337 336 336 336 336 336 336 335 335 336 336 336 336 335 334 334 333 333 333 333 332 331 330 329 328 327 328 327 325 324 324 324 324 323 322 321 320 319 318 318 319 318 321 325 325 321 318 318 317 316 314 310 307 306
336 337 337 337 337 337 337 336 336 336 335 335 334 335 334 334 334 334 334 334 334 334 333 333 332 332 332 331 331 330 328 327 325 325 325 324 322 322 322 322 321 320 319 318 317 315 314 315 316 317 319 322 323 321 318 316 315 313 311 307 303 302
336 337 337 337 337 337 336 336 336 335 334 333 333 333 333 332 332 332 331 332 332 332 332 332 331 331 332 331 330 330 327 325 324 323 322 321 320 319 319 319 319 318 316 314 314 313 312 313 314 317 319 321 323 323 319 314 312 312 310 306 301 299
337 337 336 336 336 336 335 335 335 334 332 332 331 332 332 331 330 330 329 329 329 329 329 329 329 329 329 329 327 326 324 323 322 321 320 318 317 315 314 315 315 315 313 312 312 312 312 311 312 315 318 322 324 326 326 317 309 310 310 305 299 297
337 337 336 336 335 335 335 334 334 332 332 332 330 331 331 328 328 328 327 327 326 326 326 326 325 326 326 325 323 322 321 321 319 318 317 315 313 312 310 309 309 310 310 311 311 312 311 310 309 313 319 323 320 323 330 319 309 310 309 305 299 296
337 336 335 335 335 335 334 333 332 330 330 329 328 329 328 326 325 325 325 324 324 323 323 323 323 323 322 321 321 320 319 318 317 315 314 312 311 309 306 306 306 307 309 310 311 311 311 310 309 309 313 318 319 321 322 313 310 312 308 305 301 296
336 335 335 334 334 335 334 333 331 330 328 327 325 325 325 324 323 323 322 322 321 321 321 321 320 320 320 319 319 318 317 316 314 313 312 311 309 306 305 306 306 307 308 309 310 311 311 310 309 308 307 309 312 314 311 308 311 313 308 305 302 297
335 334 334 334 334 334 333 332 331 330 330 329 326 324 323 323 322 321 320 319 319 318 318 318 318 318 318 317 317 316 315 313 312 311 310 309 307 306 306 307 307 307 308 308 308 309 309 308 308 307 306 306 305 306 306 306 308 311 310 307 302 298
334 334 334 334 334 334 333 332 331 331 330 329 327 324 322 321 320 319 318 317 317 316 316 316 316 316 316 316 315 314 312 311 310 310 310 308 308 307 307 308 308 307 308 308 308 308 307 307 306 306 305 305 305 304 304 303 303 306 308 306 303 299
333 334 334 334 334 333 333 332 331 331 329 327 326 323 321 319 318 317 317 315 315 314 314 314 315 315 315 315 314 312 311 309 309 309 309 308 308 307 307 308 307 307 307 307 307 307 306 305 305 305 304 304 304 303 302 301 300 301 302 304 304 300
333 333 333 333 334 333 332 331 331 330 328 325 323 321 319 318 316 316 315 313 313 312 312 312 313 313 313 313 312 311 310 309 308 308 308 308 307 307 307 307 307 307 306 306 306 305 305 304 304 303 303 302 302 301 301 299 299 299 299 300 301 299
332 332 333 333 334 333 332 332 331 330 328 324 322 320 318 316 315 314 313 312 311 311 311 311 311 311 311 311 310 309 308 308 307 307 307 307 307 307 307 307 306 305 305 305 305 304 304 303 303 301 300 299 298 298 299 298 298 298 298 298 298 298
332 332 333 333 334 333 332 332 331 329 327 325 323 321 318 316 314 313 312 311 310 310 310 310 310 310 310 309 308 308 308 307 307 306 306 306 306 306 306 306 305 304 303 303 303 303 303 302 301 299 297 296 296 296 297 297 297 297 297 297 297 296
332 333 333 333 333 333 333 331 330 329 327 325 323 321 319 316 314 313 311 310 309 309 309 309 309 309 308 308 307 307 307 307 307 306 306 306 306 306 306 306 305 304 303 303 303 302 301 301 299 297 296 296 296 296 296 296 296 296 296 296 296 296
333 333 333 334 333 333 333 331 329 328 326 324 322 320 318 316 313 311 310 309 308 308 308 308 308 308 308 307 307 306 307 307 307 306 306 306 305 305 305 305 304 304 303 302 302 300 298 298 297 296 296 296 296 297 296 296 296 295 296 296 296 296
332 332 333 333 333 332 331 330 328 327 325 323 321 319 317 315 312 310 308 307 307 307 307 307 307 307 307 307 306 306 306 307 307 306 306 305 305 305 305 304 304 303 302 302 301 298 296 296 296 296 296 297 297 296 295 295 294 294 295 296 296 296
332 331 331 331 331 331 330 328 327 325 323 322 320 318 316 314 312 309 307 306 306 306 307 307 307 307 307 306 306 305 306 306 306 306 305 305 305 304 304 304 303 302 302 301 300 297 295 295 296 296 296 297 296 296 295 293 293 293 294 295 296 296
330 330 330 330 330 329 328 326 325 324 322 321 319 317 316 314 311 308 306 305 305 305 306 306 306 306 306 306 306 305 305 305 306 305 305 305 304 303 303 303 303 302 301 301 299 297 295 296 296 296 296 296 296 296 294 293 293 293 294 295 295 296

ECMWFFLT2_925_thetae_114.txt.gz
Theta_e
335 338 340 340 340 340 340 340 340 339 337 336 335 334 333 333 334 335 335 334 334 334 333 329 326 324 324 325 326 327 328 330 331 329 324 319 317 317 321 325 326 326 326 326 326 326 324 324 325 326 328 328 330 334 334 333 334 335 335 335 334 334
337 339 340 340 340 340 340 340 339 339 337 336 335 333 332 334 336 336 336 336 335 336 336 333 331 330 330 330 330 330 331 332 333 333 331 329 324 318 317 318 322 324 324 324 326 328 327 325 326 328 330 332 334 335 334 335 335 334 335 334 333 333
338 339 340 341 340 341 341 339 339 338 336 336 335 332 333 335 336 336 336 336 336 336 338 338 337 337 336 336 335 334 335 334 333 333 333 333 333 329 323 318 316 317 320 323 327 330 331 330 330 332 333 333 333 332 333 333 333 333 334 333 333 333
339 340 341 340 340 341 340 339 338 337 336 335 334 333 335 335 336 336 336 336 336 336 337 338 339 338 337 337 337 337 337 336 334 334 334 333 333 334 332 329 322 318 319 324 327 329 330 331 332 332 332 332 331 331 332 332 332 333 333 333 333 332
340 340 340 340 340 340 339 338 337 336 336 334 334 335 336 336 336 336 336 336 336 336 336 335 336 336 337 337 338 337 337 337 336 335 335 333 333 334 334 334 331 327 327 328 329 331 332 333 334 334 333 332 332 332 332 333 332 332 333 333 333 333
340 340 340 340 340 339 338 338 337 336 335 334 334 335 336 337 337 336 337 337 336 336 336 336 337 337 337 337 337 337 337 337 337 336 335 334 334 335 335 335 334 333 333 333 333 334 334 335 335 335 334 334 334 333 333 333 333 334 334 335 335 335
339 340 340 340 339 339 338 337 337 336 335 334 334 335 337 337 337 337 337 337 337 337 337 337 338 338 337 337 337 337 337 337 337 337 335 335 336 336 337 336 336 335 335 336 336 336 336 336 336 336 335 335 335 335 335 335 335 335 336 336 336 336
339 339 340 340 340 339 338 337 337 336 334 333 334 336 337 337 338 338 337 338 338 338 338 338 338 338 338 337 337 337 337 337 337 336 335 336 337 337 337 337 337 336 336 336 336 336 336 336 336 336 336 336 336 336 336 336 336 336 336 336 336 336
339 339 340 340 339 339 338 337 337 335 333 334 335 337 338 338 338 338 338 338 339 338 338 337 338 338 338 336 337 337 337 336 337 337 337 337 337 337 337 337 337 337 337 336 336 337 336 337 336 336 336 335 335 335 335 335 335 335 335 335 335 334
340 340 340 339 340 338 337 337 336 335 334 335 337 337 338 338 339 338 338 339 339 338 338 338 338 339 338 337 336 337 336 336 337 337 337 337 337 337 337 337 337 336 336 336 336 336 336 336 335 335 335 334 334 333 333 333 333 333 333 334 334 334
340 340 339 339 339 338 337 336 336 335 335 337 337 338 338 338 338 338 338 339 339 339 339 339 339 339 338 337 336 337 337 336 336 337 337 336 336 337 337 337 336 336 335 335 335 334 335 334 334 334 333 332 332 331 331 331 331 332 332 333 333 333
339 339 339 339 339 338 336 336 336 335 336 337 338 338 338 339 339 338 339 339 339 339 340 339 339 338 337 336 336 337 337 337 336 336 336 336 336 337 336 336 335 334 334 333 333 333 333 333 333 332 332 331 330 330 330 330 331 331 331 331 331 331
337 338 338 339 340 338 336 336 336 335 336 337 337 338 338 339 339 338 339 339 339 339 339 338 338 337 336 336 336 336 336 336 336 336 336 336 335 335 335 334 334 333 333 333 332 332 332 332 331 331 330 329 329 329 329 329 329 328 327 326 326 326
336 337 338 338 339 338 336 336 336 336 336 337 337 338 338 339 339 339 338 338 339 339 339 338 338 337 336 336 336 336 336 335 335 335 335 335 334 334 334 333 332 332 332 331 331 331 331 330 329 328 328 328 328 327 327 326 324 323 322 320 320 321
337 337 338 337 337 337 336 336 337 337 336 337 337 338 338 339 338 338 338 338 338 338 339 338 337 337 336 336 336 336 336 335 335 334 334 334 334 333 333 332 331 331 331 330 330 329 329 328 327 326 326 326 326 325 323 321 320 319 317 316 316 316
337 337 337 336 335 335 336 336 337 337 337 337 338 338 338 338 337 337 338 337 337 338 338 338 337 336 336 336 336 336 336 335 334 334 333 333 333 332 331 331 330 330 330 329 329 328 328 327 325 324 324 324 323 322 320 317 316 314 313 313 312 312
336 336 335 335 335 336 336 337 337 337 338 338 338 338 337 337 337 338 337 336 336 338 338 337 337 336 336 336 335 335 335 334 333 333 333 332 332 331 331 330 329 329 328 327 327 327 327 325 324 324 323 322 321 320 318 315 313 311 310 309 307 308
335 335 334 334 335 336 337 337 338 338 338 338 337 337 337 337 337 337 336 336 337 338 338 337 337 336 335 335 334 334 334 333 333 333 332 332 331 330 329 329 328 327 325 325 324 323 322 321 323 323 321 320 319 318 315 312 309 308 306 304 303 305
336 336 335 335 335 336 336 337 337 337 337 337 337 336 336 336 336 336 336 337 338 337 337 337 336 336 335 334 334 333 333 332 331 331 331 330 329 328 327 326 325 323 322 321 318 317 316 318 323 323 320 318 317 315 313 311 307 304 302 300 300 302
336 336 335 335 336 336 336 336 336 336 335 335 335 335 336 336 335 335 336 336 336 336 336 336 335 334 334 333 332 332 331 330 329 329 328 327 326 324 324 323 322 320 319 316 313 311 313 317 323 322 319 316 315 313 312 310 306 300 298 299 298 299
335 335 335 336 336 335 336 335 335 335 335 334 335 335 335 335 335 335 335 335 335 335 334 334 333 333 332 331 331 331 330 329 327 326 325 323 322 321 320 320 319 317 314 312 310 309 311 315 320 322 320 317 315 313 311 310 306 299 296 297 297 297
335 335 336 336 336 336 336 335 335 334 334 333 333 335 335 334 335 334 334 334 333 332 332 332 332 331 331 330 330 329 328 326 324 322 321 319 318 317 317 318 316 313 310 310 309 308 309 310 315 318 317 318 319 316 314 310 306 303 297 295 297 296
336 336 336 336 336 336 336 335 335 334 333 333 332 333 334 333 333 333 332 331 330 330 330 330 330 329 329 328 327 326 324 322 320 319 318 316 313 311 311 313 313 311 309 308 308 307 307 306 312 316 315 320 321 320 321 311 305 307 301 296 296 296
336 336 335 335 335 335 335 334 334 333 333 333 331 331 332 330 330 330 329 328 328 327 327 328 327 327 326 325 324 323 321 320 317 316 314 311 308 306 307 309 310 309 308 307 307 307 307 305 307 312 317 321 317 318 323 313 305 307 304 297 295 296
335 335 335 335 335 334 334 333 332 331 332 331 329 330 330 327 326 327 326 325 324 324 324 324 324 324 323 323 322 321 319 317 315 312 310 307 305 305 306 307 308 308 307 307 306 306 306 305 305 306 310 314 315 317 318 309 307 308 304 299 296 295
333 334 334 334 334 334 334 333 332 331 330 329 326 327 328 325 325 325 324 323 322 321 321 321 321 321 320 320 319 318 317 314 312 309 307 305 305 305 306 307 307 307 307 307 306 306 305 305 304 303 303 305 307 309 308 306 309 310 304 300 297 295
332 333 334 334 334 334 334 333 332 332 331 330 327 324 325 325 324 324 322 321 320 319 319 319 319 318 318 318 317 315 313 311 309 307 305 304 305 305 306 307 307 306 307 306 305 305 305 304 303 303 302 300 299 299 300 302 306 308 307 303 297 295
331 332 333 333 334 334 334 332 332 332 330 330 328 324 323 323 322 321 320 319 318 318 317 317 317 317 316 315 314 312 310 309 307 306 305 305 306 306 306 306 306 306 305 305 304 303 303 303 302 301 300 298 296 296 296 298 300 303 305 306 301 297
330 332 333 333 334 334 334 333 332 331 329 327 327 324 322 321 320 319 319 317 317 316 316 316 316 315 314 313 312 310 309 308 307 306 306 306 306 306 306 305 305 305 304 303 302 301 301 299 298 297 297 296 295 295 295 295 297 297 298 302 303 299
331 332 333 333 334 333 333 333 331 330 329 326 324 322 320 319 318 318 318 316 315 315 314 315 314 313 312 311 310 309 308 307 306 306 306 306 305 305 305 305 304 303 302 302 301 300 299 297 296 295 295 295 295 296 296 296 296 296 296 298 299 298
330 332 332 332 333 333 332 332 331 330 330 327 324 321 319 317 316 316 316 314 314 313 313 313 313 312 311 309 309 307 307 307 306 306 305 305 305 304 304 303 303 302 302 301 301 299 297 296 295 295 294 294 295 295 296 296 296 296 296 296 297 297
330 331 332 331 331 332 331 331 331 330 330 328 324 322 320 318 316 316 316 314 312 312 312 312 311 311 310 309 308 307 306 306 306 305 305 305 304 303 302 302 301 302 301 301 300 298 296 295 295 295 294 294 294 294 294 295 295 295 296 296 296 297
329 330 331 331 330 331 331 331 330 330 329 326 324 323 321 319 317 316 315 313 311 311 311 311 310 310 309 308 307 306 306 305 305 305 305 304 304 303 302 302 301 300 300 299 298 296 295 295 295 294 294 293 293 293 293 294 294 294 295 295 295 296
329 330 331 332 332 331 331 330 330 329 328 326 324 322 321 320 317 316 314 312 311 310 310 309 309 308 308 307 306 306 305 305 305 305 305 304 303 303 302 302 300 298 297 297 296 295 295 295 294 294 293 293 292 293 293 293 294 294 295 295 295 296
329 330 330 332 332 331 330 329 329 328 327 325 324 322 320 319 317 315 313 311 309 309 309 308 308 308 307 307 306 306 305 305 305 304 304 304 303 303 302 301 299 296 296 296 295 295 295 294 294 293 293 293 292 292 293 293 294 294 295 295 295 295
330 331 331 332 332 331 330 328 328 327 326 324 323 321 319 316 315 313 311 309 308 308 308 308 307 307 307 307 306 306 306 305 305 304 304 304 303 302 302 300 298 296 295 295 295 295 294 294 294 294 293 292 292 292 293 293 294 294 295 295 295 295
331 331 332 332 332 330 329 328 327 326 325 323 322 321 318 315 312 310 309 308 307 307 308 307 306 306 306 306 306 306 305 305 304 304 303 303 303 302 301 300 297 296 295 295 295 295 295 294 294 293 292 292 292 292 292 293 293 294 295 295 295 295

ECMWFFLT2_925_thetae_117.txt.gz
Theta_e
338 339 340 341 341 341 339 339 340 339 339 337 334 333 333 333 333 333 332 332 330 328 327 325 326 327 328 329 329 331 330 326 323 322 320 318 318 321 325 326 326 326 325 325 324 323 323 324 325 326 328 330 332 335 334 334 335 334 335 334 333 334
339 338 339 341 341 341 340 339 339 339 339 337 335 333 334 335 336 336 334 335 333 330 329 330 333 333 333 334 333 333 333 332 331 331 329 326 320 317 318 321 324 324 323 325 327 327 326 326 327 328 330 333 333 333 332 333 333 333 334 333 334 334
338 338 338 340 341 341 341 340 340 340 339 337 336 335 336 337 337 337 336 336 337 335 335 336 338 338 336 337 337 335 334 334 333 333 333 333 330 324 318 316 317 318 321 326 329 330 330 330 330 331 332 332 332 331 332 332 332 333 333 334 334 333
337 338 339 340 340 341 341 341 340 339 338 337 336 336 337 336 336 336 336 337 337 338 338 339 339 338 338 338 338 337 336 335 334 334 333 333 333 332 327 322 319 319 323 327 329 330 332 332 331 332 332 331 332 332 332 332 333 334 334 334 335 334
337 339 340 341 340 341 341 340 339 339 339 337 335 336 337 336 336 336 336 336 336 336 336 337 338 338 339 339 338 337 337 337 336 335 333 333 333 334 333 331 329 328 328 330 331 331 332 333 332 332 333 332 333 332 333 334 334 335 336 336 336 335
338 339 340 341 340 340 340 339 339 338 338 337 335 335 337 337 337 337 337 336 336 336 336 337 337 337 337 337 337 337 337 337 337 336 334 334 334 334 334 334 333 333 332 333 333 333 333 334 334 334 335 334 334 334 335 336 336 336 337 337 336 336
339 339 339 340 340 340 339 339 339 338 338 337 335 336 337 338 338 338 337 337 337 337 337 338 338 337 337 337 337 337 336 336 336 336 335 335 336 336 336 336 335 334 335 335 335 336 336 335 335 336 336 336 336 335 336 336 336 336 336 337 336 335
339 339 340 339 340 339 339 339 339 338 337 336 336 337 338 338 338 337 337 338 338 338 338 338 338 338 337 336 337 337 336 336 336 336 336 337 337 337 337 337 336 336 337 337 337 337 337 336 336 336 336 335 335 335 335 335 334 335 335 336 335 334
339 339 339 339 339 339 339 339 338 338 337 336 337 338 338 338 339 338 338 339 338 338 338 338 338 338 337 336 337 337 336 336 336 336 337 338 337 338 337 337 336 337 337 337 337 336 336 336 335 334 334 334 333 333 332 332 333 333 334 334 332 331
339 339 339 339 339 339 339 339 338 338 337 337 337 337 338 338 338 338 338 339 338 338 338 338 339 339 338 337 336 337 336 336 337 336 337 338 337 337 337 336 336 336 336 336 335 335 335 334 333 333 332 332 331 331 331 331 332 331 332 332 329 328
338 338 338 339 339 339 339 338 338 338 337 337 338 338 338 338 338 338 338 338 339 338 339 339 339 339 338 337 336 337 337 336 336 336 336 336 337 336 336 336 336 335 334 334 333 333 333 332 332 331 330 330 330 330 329 329 329 329 328 328 327 326
338 337 338 339 339 339 338 337 337 337 337 337 338 338 338 339 338 338 338 338 339 339 339 339 339 338 337 337 337 337 337 336 336 336 336 336 336 336 336 335 334 334 333 332 332 331 331 330 330 329 329 328 328 327 326 326 326 325 325 324 324 323
337 337 338 339 339 339 337 336 337 337 337 337 338 338 338 338 338 338 338 338 338 339 339 339 338 337 336 336 337 337 337 336 336 335 335 335 335 335 334 334 333 332 332 331 331 330 329 329 328 327 327 326 325 324 322 321 321 321 321 320 321 321
337 338 339 340 339 338 337 336 336 337 337 337 337 338 338 338 338 339 339 338 338 339 339 338 338 337 336 336 336 337 336 335 335 335 335 334 334 333 332 332 331 331 330 330 329 329 328 327 327 326 324 322 321 319 318 317 316 316 317 317 318 319
337 338 338 339 339 338 337 336 336 336 336 336 337 337 337 338 338 339 338 338 338 339 338 338 338 337 336 336 336 336 335 335 334 334 334 333 333 332 331 331 330 329 329 329 328 327 326 326 325 323 320 318 316 315 314 313 313 313 313 314 315 316
337 338 338 338 339 339 338 336 336 336 337 337 337 337 337 338 338 338 338 338 338 338 338 337 337 336 336 336 336 335 335 334 334 333 333 332 332 331 330 329 329 328 327 327 326 325 325 325 323 320 317 315 313 312 310 309 309 309 310 311 311 311
337 338 338 338 338 338 338 337 336 337 337 337 338 338 337 338 337 337 338 337 337 338 338 337 337 336 336 335 335 335 334 334 333 332 332 331 330 329 328 327 327 326 325 325 323 322 323 323 321 317 314 311 309 308 306 305 304 305 306 307 308 308
337 338 338 338 337 337 337 336 337 337 337 337 338 338 337 337 337 337 337 336 336 337 337 336 336 336 335 334 334 333 333 332 332 331 330 330 329 328 327 325 324 323 323 322 318 319 322 322 319 315 311 307 306 304 302 301 301 302 304 305 306 306
338 337 336 336 336 336 336 336 336 336 337 337 337 337 337 337 337 337 336 335 336 337 336 336 336 335 335 333 333 332 332 331 330 329 329 328 327 326 324 323 322 320 318 315 313 316 321 321 318 313 309 304 302 300 299 298 298 299 301 303 304 304
336 336 335 335 335 335 336 336 336 336 336 337 336 336 336 336 336 336 335 335 336 336 336 335 335 335 334 333 333 332 331 330 329 328 328 327 325 323 321 320 319 316 312 310 312 318 322 321 318 314 311 308 304 299 297 296 297 298 299 301 303 304
336 336 334 334 335 335 336 335 335 336 335 335 336 335 335 335 335 335 335 335 335 334 335 335 334 334 333 333 332 332 331 330 329 328 326 325 323 320 319 318 316 312 309 308 311 318 321 321 320 318 316 314 311 307 301 297 296 296 298 299 301 303
336 336 334 334 334 335 336 336 336 335 335 335 335 335 335 334 334 334 335 335 334 334 334 334 334 333 332 332 331 330 329 327 326 324 323 321 318 315 316 316 312 309 308 306 307 313 319 322 322 322 321 320 318 315 309 302 299 297 297 299 300 301
335 335 335 334 334 335 335 335 335 335 334 333 333 334 334 334 333 334 333 333 333 333 333 332 332 331 330 329 329 328 326 324 323 321 319 316 312 311 313 314 311 307 307 307 305 306 312 318 321 323 323 322 321 321 316 309 305 302 299 299 299 300
334 335 335 334 334 335 334 334 334 333 334 333 332 333 333 332 332 332 331 331 332 331 331 330 329 328 327 326 325 324 323 322 320 317 313 310 307 307 310 312 309 306 307 309 308 304 304 310 315 319 321 320 318 317 313 311 310 307 303 301 299 300
333 334 335 334 334 334 334 333 331 330 331 331 330 331 331 329 329 330 330 330 329 328 327 326 326 325 324 323 323 321 320 319 316 311 308 306 305 305 308 309 308 306 306 308 308 306 302 302 305 310 314 316 316 311 307 308 309 308 304 301 300 300
334 334 334 334 334 334 334 332 330 328 328 328 326 326 329 328 328 328 327 327 325 324 323 323 322 322 321 321 320 319 317 314 310 307 305 304 304 305 307 308 307 305 304 305 308 308 304 300 298 298 301 304 307 307 307 309 309 307 304 302 301 299
334 334 333 334 334 334 333 331 330 330 329 327 325 325 327 329 328 326 324 324 323 321 321 321 320 320 319 318 317 315 313 309 306 305 304 304 305 306 307 307 306 305 304 303 307 309 307 304 300 298 297 296 297 299 303 307 308 307 305 304 301 300
334 334 333 333 334 334 332 330 329 330 329 328 327 326 326 327 326 324 322 321 320 319 319 318 318 318 317 316 314 312 309 306 305 304 304 304 305 306 306 305 304 303 302 301 302 304 305 305 303 301 299 298 297 297 298 301 304 304 304 304 303 301
333 333 333 333 333 333 331 329 328 329 328 327 328 327 326 325 323 321 320 319 318 318 317 317 316 316 315 313 311 309 307 305 304 304 305 305 305 305 304 303 301 300 298 297 297 297 298 300 301 301 301 301 301 301 300 301 302 303 303 303 302 302
333 333 333 333 333 332 330 329 329 329 329 327 326 325 324 322 320 319 319 317 317 316 315 315 315 314 313 311 309 307 306 305 305 305 305 305 304 303 302 301 299 298 296 296 295 295 295 296 297 298 300 302 303 303 303 302 302 303 303 303 302 302
332 332 333 332 333 332 329 329 330 330 330 328 326 324 321 319 318 318 317 315 315 315 314 314 313 312 311 309 308 307 305 305 305 305 305 304 303 301 301 300 298 297 296 295 295 295 295 295 295 295 297 300 301 301 302 302 302 302 302 302 303 302
332 332 333 332 332 331 329 329 330 330 329 328 325 323 321 318 317 317 316 315 314 314 314 313 312 311 309 308 307 306 305 305 305 304 303 302 301 300 300 299 297 296 295 295 295 295 295 295 295 296 296 298 299 299 300 300 301 301 301 302 302 302
332 332 333 332 331 330 329 328 329 329 328 326 325 323 322 320 318 317 316 315 314 313 313 312 311 309 308 307 306 306 305 305 304 303 302 301 301 300 299 298 296 295 295 295 294 294 294 294 294 295 296 297 297 298 298 299 299 300 300 301 301 302
332 332 332 332 330 329 328 328 329 330 328 326 325 323 322 321 319 318 316 315 313 312 312 311 310 309 307 307 306 305 305 304 304 303 302 301 300 299 298 296 296 295 295 294 294 294 294 293 293 294 295 296 297 298 298 298 298 299 299 300 300 301
331 331 332 331 330 329 328 329 329 329 328 326 324 323 322 321 319 317 316 314 312 311 311 311 309 308 307 306 305 305 305 304 303 302 302 301 299 297 296 296 295 295 294 294 294 293 293 293 293 293 293 295 296 297 297 297 298 298 298 299 299 299
331 331 332 331 330 328 328 329 328 328 327 326 324 322 321 319 318 316 314 312 311 310 310 309 308 307 306 306 305 305 305 304 303 302 302 301 298 296 295 295 295 294 294 294 293 293 293 293 293 292 293 294 295 296 296 297 298 298 298 298 298 298
330 330 331 330 329 328 328 328 327 327 326 325 324 323 321 318 317 315 312 311 310 309 309 308 308 307 306 306 305 305 304 304 303 302 301 300 298 296 295 295 295 295 294 294 293 293 293 293 293 292 292 294 295 296 296 297 297 297 297 297 297 297

ECMWFFLT2_925_thetae_123.txt.gz
Theta_e
340 341 343 343 344 344 341 340 339 339 338 337 334 329 329 330 331 331 327 327 329 333 336 335 335 333 330 323 316 317 318 319 322 323 325 327 327 327 325 325 325 326 326 327 328 328 328 328 328 328 330 329 327 331 336 335 333 334 334 336 339 337
340 341 343 343 344 345 341 340 340 340 338 335 331 330 333 335 336 333 329 332 336 336 336 337 337 336 337 332 319 314 316 316 318 318 320 324 326 327 326 324 324 323 323 323 323 325 327 326 325 325 326 327 329 334 335 335 334 334 336 339 339 335
340 341 342 343 344 345 342 341 342 341 339 335 332 334 338 338 338 336 335 337 337 336 336 338 340 338 337 336 329 324 324 323 322 319 316 318 320 324 326 324 323 322 320 318 319 325 330 331 329 327 327 330 334 335 335 336 335 336 339 340 338 335
341 340 342 343 344 344 342 342 343 342 341 338 336 338 339 338 337 337 338 338 337 339 340 340 341 338 335 336 335 332 332 331 330 326 322 321 319 319 322 322 322 322 321 323 326 330 332 334 333 332 333 334 336 336 335 336 335 338 340 338 337 336
340 340 341 342 342 343 342 342 342 341 341 340 338 338 339 338 338 339 339 339 340 341 340 342 342 339 339 340 339 337 336 336 336 334 333 334 330 325 324 325 326 328 329 331 332 331 330 332 332 333 335 335 336 337 336 336 336 339 339 337 335 335
340 340 341 341 341 342 342 342 342 341 340 338 337 337 338 338 339 339 339 340 341 341 341 341 341 341 341 340 340 340 339 340 339 338 338 338 336 334 333 332 331 332 333 333 332 331 331 332 334 335 336 336 337 337 337 336 337 338 337 334 334 334
340 341 341 340 341 342 341 341 341 340 339 338 337 337 338 337 338 340 340 340 340 341 342 342 342 342 341 341 341 341 341 341 340 340 340 339 337 337 336 334 334 333 333 333 334 334 335 336 337 338 337 337 337 338 337 336 337 338 336 332 332 333
340 340 342 340 340 341 340 340 341 339 339 338 337 338 338 337 338 341 341 341 342 342 342 343 343 342 342 342 341 341 342 342 341 340 340 339 339 338 338 337 336 336 336 335 336 336 336 337 338 338 338 337 337 337 336 335 337 337 336 332 330 330
340 340 341 341 340 340 340 341 341 339 339 338 337 338 338 338 339 341 342 342 343 344 344 343 343 343 342 342 342 342 342 342 341 340 340 340 339 339 339 338 336 337 336 336 336 336 336 337 337 337 337 337 336 335 335 334 335 335 335 332 329 328
339 341 341 341 340 340 340 341 341 339 339 338 338 339 338 338 339 341 343 344 344 344 344 343 343 342 342 343 343 342 342 342 341 341 340 340 340 340 339 338 337 337 336 336 336 336 336 336 336 336 335 335 334 334 334 333 332 333 333 332 329 328
339 340 341 340 340 340 341 341 340 339 338 338 338 339 339 337 339 341 344 345 344 344 344 344 344 343 343 343 343 342 343 342 342 341 340 340 340 340 339 339 338 338 337 337 336 336 336 335 335 334 334 333 333 332 332 332 332 331 331 331 329 328
339 340 340 340 340 341 341 340 339 339 338 338 339 339 339 338 338 341 344 345 345 345 344 345 345 343 343 342 342 343 342 342 341 341 341 341 341 340 339 338 338 337 337 336 336 335 335 334 334 333 332 330 330 330 330 330 330 330 330 329 328 328
340 341 340 339 340 341 340 339 339 338 337 338 339 339 340 339 339 342 345 345 345 345 345 345 344 342 342 342 342 342 341 341 341 341 341 341 340 340 339 338 337 336 336 335 335 335 334 333 332 331 330 329 328 328 328 328 328 328 327 327 326 326
340 341 340 339 340 340 339 339 339 338 338 339 339 340 340 339 340 343 344 344 344 344 344 344 342 341 342 342 341 341 341 340 340 341 340 340 339 337 337 336 335 335 335 334 334 334 333 331 331 330 328 327 327 326 325 325 325 325 324 324 323 323
340 340 340 340 340 340 339 340 338 337 338 339 340 340 340 340 341 343 342 343 345 344 344 343 341 341 342 341 341 340 341 340 340 340 339 338 336 335 335 335 335 335 334 333 333 333 331 331 329 328 326 325 325 324 323 323 322 322 321 321 320 319
340 340 340 340 340 340 339 339 338 337 338 339 340 340 341 340 341 342 342 342 343 344 344 342 340 340 341 341 340 339 339 338 338 337 337 336 334 334 334 334 335 334 334 333 332 331 330 329 328 325 324 323 322 322 321 321 320 319 318 317 316 315
341 341 340 340 340 340 339 338 338 338 339 340 339 340 340 340 340 341 341 341 341 341 342 342 340 340 340 340 338 337 337 336 336 336 336 335 333 332 332 334 333 332 333 333 331 331 329 327 325 323 322 320 320 319 319 318 317 316 316 315 314 313
341 341 340 340 340 340 339 338 338 339 339 339 339 340 339 339 341 341 341 340 339 340 341 341 340 340 340 338 337 336 336 336 336 335 335 334 333 332 332 333 332 328 330 332 330 330 328 325 323 320 319 318 317 317 316 315 315 314 313 313 312 312
340 340 340 340 340 341 340 339 339 339 339 338 338 339 339 340 341 341 341 341 340 340 340 341 340 339 338 337 336 336 336 335 335 335 335 334 332 331 331 331 330 326 327 332 331 329 326 322 320 318 316 315 315 314 314 313 313 313 312 312 311 311
340 340 341 340 340 341 339 339 339 339 338 338 338 339 339 340 340 340 341 340 340 340 339 339 339 339 337 336 336 336 336 335 334 334 334 335 333 332 331 329 329 327 327 330 331 327 323 320 318 316 315 313 313 312 312 312 312 312 311 311 310 310
340 341 341 340 340 340 338 338 339 338 338 338 338 338 339 340 340 339 340 340 339 339 338 338 338 337 337 336 335 335 335 334 333 333 333 333 331 330 328 326 326 326 327 330 329 326 322 320 319 318 317 315 312 311 311 311 311 311 310 310 309 309
340 340 341 340 340 339 338 338 338 338 338 338 338 338 338 339 339 339 339 339 338 337 337 337 337 336 336 335 335 335 334 333 331 331 331 330 328 327 326 324 324 323 325 329 330 327 324 323 323 322 322 320 315 311 310 310 310 310 309 309 309 309
340 340 340 339 340 339 338 338 337 337 337 337 337 336 337 338 338 338 337 336 337 336 336 336 335 335 334 334 334 333 332 331 330 329 328 328 327 327 325 325 324 322 321 324 327 327 326 327 328 326 325 324 320 315 313 312 310 310 309 309 309 310
340 340 340 339 339 338 337 337 337 337 337 336 335 336 336 336 336 336 335 335 335 335 334 334 334 333 333 332 332 330 330 329 327 327 326 327 326 326 324 322 323 322 320 320 322 324 325 327 328 326 326 327 325 322 321 317 312 310 309 309 309 309
339 339 339 338 338 338 337 338 337 337 336 335 335 335 335 335 335 335 334 334 333 333 333 332 332 331 331 330 329 328 327 326 324 324 324 324 324 323 321 320 321 322 321 319 318 319 320 321 322 321 322 325 326 324 322 317 313 311 309 308 307 307
339 338 338 337 337 338 337 337 337 336 335 335 335 335 335 335 334 334 333 333 332 331 331 329 329 329 328 327 327 326 324 322 322 322 323 322 321 320 319 319 319 320 318 316 315 314 314 315 315 315 315 317 321 323 319 315 314 312 309 308 307 306
338 338 337 335 336 338 337 337 336 335 335 335 335 335 335 334 333 333 332 331 330 329 328 327 326 325 325 325 323 322 320 319 318 320 320 321 320 319 319 319 320 320 319 316 314 312 312 311 312 312 312 311 314 317 318 316 316 314 312 311 309 307
337 337 337 335 336 337 337 337 336 335 335 335 335 334 333 333 332 331 330 329 328 327 326 325 324 323 322 321 320 318 318 317 317 318 319 319 318 318 317 317 318 319 319 319 317 314 312 310 310 311 312 311 309 311 313 314 314 314 314 314 311 309
336 336 336 336 336 336 336 336 336 335 335 335 335 333 332 332 331 330 329 328 327 326 324 324 323 322 321 319 318 318 318 318 317 317 317 317 317 316 316 316 316 317 317 317 316 315 314 313 313 312 313 312 310 309 310 311 311 311 312 313 310 309
336 336 336 336 336 336 336 336 336 336 335 335 334 332 331 331 330 328 328 327 326 326 325 323 322 320 319 318 318 318 318 318 317 315 315 314 313 313 313 313 314 314 314 314 314 314 315 314 314 314 313 313 312 311 311 311 311 311 311 311 310 308
337 336 337 337 336 336 336 336 336 336 335 334 333 332 331 330 329 328 327 327 327 326 325 323 321 320 318 318 318 318 318 317 315 314 313 312 310 310 310 311 312 312 312 312 312 312 312 312 312 311 311 311 311 311 311 311 311 311 311 311 311 309
337 337 337 337 337 337 337 336 336 336 335 334 332 332 331 330 329 327 327 327 327 326 325 323 321 320 319 319 318 317 317 316 314 313 312 310 309 309 309 309 310 311 311 311 311 311 311 311 310 310 310 310 309 310 310 310 310 310 310 310 310 310
338 337 337 337 337 337 337 336 336 336 334 333 332 332 332 330 328 327 326 327 327 326 324 322 321 320 319 318 317 316 316 315 314 313 312 310 309 309 309 309 310 310 310 311 311 311 311 311 310 309 309 308 309 309 308 309 309 308 309 309 309 310
338 337 337 337 337 337 337 336 335 335 333 333 332 332 332 330 329 328 328 328 327 325 323 321 321 319 318 317 316 316 315 314 313 312 311 310 309 309 309 308 309 309 309 309 310 310 310 310 310 309 309 309 308 308 307 307 308 307 307 307 307 308
338 337 336 337 337 337 336 335 335 334 333 332 332 332 331 330 330 330 329 328 326 324 323 321 320 319 318 317 316 315 314 313 312 312 310 310 309 309 309 308 309 309 308 308 309 309 309 309 309 308 308 308 307 307 307 307 307 306 306 306 306 306
338 337 337 337 337 336 335 335 334 333 332 332 332 332 331 331 330 329 328 327 325 324 323 322 320 318 317 316 315 313 312 312 312 311 310 310 309 309 309 308 308 308 307 307 308 308 308 308 308 308 307 307 306 306 306 306 306 306 306 305 305 305
338 338 337 337 336 336 335 335 335 333 332 331 331 331 331 330 330 328 327 326 325 324 323 321 319 317 316 314 313 313 312 311 311 310 309 309 309 309 308 308 308 307 307 307 307 307 307 307 307 307 306 306 305 305 305 305 305 305 305 305 304 304